Location: Bruderhein
(53.8035°N, 112.9265°W)
Time: 00:19:32
(UTC+00:00)

Gurwin Techsat 1B - Pass Details

Date: 22 April 2024
Orbit: 811 x 812 km, 98.9° (Epoch: 20 May)

Event Time Altitude Azimuth Distance (km) Brightness Sun altitude
Rises 11:14:26 0° 17° (NNE) 3,350 12.7 -8.5°
Reaches altitude 10° 11:16:48 10° 19° (NNE) 2,414 12.0 -8.2°
Maximum altitude 11:22:09 75° 105° (ESE) 847 8.9 -7.6°
Drops below altitude 10° 11:27:27 10° 191° (S) 2,396 10.7 -6.9°
Sets 11:29:47 0° 193° (SSW) 3,324 11.4 -6.6°
